Location: Krasnoyarskiy Pitomnik
(51.1333°N, 71.6167°E)
Time: 15:25:09
(UTC+00:00)

Transit 4A - Pass Details

Date: 14 April 2024
Orbit: 871 x 971 km, 66.8° (Epoch: 19 May)

Event Time Altitude Azimuth Distance (km) Brightness Sun altitude
Rises 19:44:12 0° 309° (NW) 3,469 11.3 -28.7°
Reaches altitude 10° 19:48:15 10° 282° (WNW) 2,527 10.2 -28.6°
Enters shadow 19:48:53 11° 276° (W) 2,446 10.0 -28.6°
